sat.trackr.live / text

‹ back to catalog

STARLINK-4760

NORAD 53828 · 2022-114L

PAYLOAD ACTIVE UNKNOWN

§ Identity

Operator
Country
US
Launch date
2022-09-19
Launch site
AFETR
Launch vehicle
Mass (kg)
RCS (m²)

Purposes: comms

External: N2YO · Heavens-Above · Gunter

§ Orbital elements

Epoch: 2026-05-25T04:52:27.592032Z

Period
95.44 min
Inclination
53.2141°
Eccentricity
0.0001297
Mean motion
15.08838243 rev/d
Perigee alt
538.9 km
Apogee alt
540.6 km
Semi-major
6,917.9 km
B*
4.4241e-5
RAAN
320.5441°
Arg perigee
85.4233°
Mean anomaly
274.6908°
Rev number
20,438

§ Raw data

STARLINK-47601 53828U 22114L   26145.20309713  .00000416  00000+0  44241-4 0  99982 53828  53.2141 320.5441 0001297  85.4233 274.6908 15.08838243204382

JSON: /api/v1/satellites/53828 · /tle

For live sub-satellite position, see the globe view (requires WebGL).

§ Visibility from observer

Set your observer location to see the next 7 days of passes ≥ 10°. The values pass through the URL so the page stays shareable.

No JS? Fill the form by hand. The geolocation button needs JavaScript.